Location: San Pelegr�n
(42.1868°N, 0.0079°E)
Time: 18:03:35
(UTC+00:00)

ERBS - Pass Details

Date: 24 January 2020
Orbit: 412 x 427 km, 57.0° (Epoch: 22 February)

Event Time Altitude Azimuth Distance (km) Brightness Sun altitude
Rises 17:49:44 0° 249° (WSW) 2,349 8.5 -8.8°
Reaches altitude 10° 17:51:58 10° 260° (W) 1,487 6.6 -9.2°
Maximum altitude 17:54:57 30° 324° (NW) 777 3.8 -9.7°
Drops below altitude 10° 17:57:56 10° 28° (NNE) 1,489 4.6 -10.2°
Enters shadow 17:58:14 - 30° (NNE) 1,602 4.8 -10.3°
